SL-16 DEB, 31796

Orbit data source: Space-Track

SL-16 DEB, 31796 is space debris in LEO originally from a launch on Fri, 29 Jun 2007 UTC launched from the Tyuratam Missile And Space Complex (TTMTR). Debris objects in space refer to the collection of defunct objects orbiting the Earth. Examples of debris include non-operational satellites, rocket bodies, and fragments generated from explosions, collisions, or faulty payload assembly.

Loading next visibility...
Identifier
31796, 2007-029E
Orbit
LEO
Country
Flag of CISCIS
Related business
Manufacturer
Yuzhnoe
Mission
Spacecraft
Bus & Motor
SEP MOTOR COVER, Unknown motor
Mass
~1 kg wet, ~1 kg dry
Launch date (UTC)
2007-06-29 (19 years ago)
Launch vehicle
Unknown
Launch site
Tyuratam Missile And Space Complex (TTMTR)
Object type
Payload
Rocket body
Debris
Shape & HBR
Cone, 0.5 m
Radar Cross Section
0.635 m², Medium (>0.1 m² and < 1m²)

Expand to show TLE details & history
Last TLE update: 2 days ago

TLE from 2 days ago
0 SL-16 DEB
1 31796U 07029E   26171.45308707  .00000035  00000-0  75978-4 0  9993
2 31796  71.0442 355.9914 0214319  10.0006   9.7870 13.68940717947882
Epoch: 2026-06-20T10:52Z
TLE epoch observation values (Epoch: 2026-06-20T10:52:26.722Z)
Latitude
19.08513°
Longitude
-68.99891°
Altitude
849.433 km
Speed
7.508 km/s
True Right ascension
00h 11m 07s
True Declination
18° 58' 50"
Sunlit
Object was in daylight at epoch
Visualization orbit readout
Latitude
Unknown
Longitude
Unknown
Altitude
Unknown
Speed
Unknown
Apparent Right ascension
Unknown
Apparent Declination
Unknown
Sunlit
N/A
Visualization observer readout
Local Sidereal Time
02:13:11
Azimuth
Unknown
Elevation
Unknown
Doppler factor
Unknown
Orbital elements
Apogee altitude
1,159.497 km
Perigee altitude
843.185 km
Semi-major axis
7,379.478 km
Eccentricity
0.02143
Inclination
71.0442°
RAAN
355.9914°
Arg. of periapsis
10.0006°
True anomaly
10.21577°
Mean anomaly
9.787°
Eccentric anomaly
10.00024°
Mean motion
3.42377 °/min
Orbital period
105.15 mins
BSTAR
0.000075978
Loading maneuver chart data...
Computing Atmospheric mass density...

Documentation

Showing up to 5 results
|